Time,TemperatureF,DewpointF,PressureIn,WindDirection,WindDirectionDegrees,WindSpeedMPH,WindSpeedGustMPH,Humidity,HourlyPrecipIn,Conditions,Clouds,dailyrainin,SoftwareType,DateUTC
2013-08-05 06:32:00,56.3,56.0,30.04,SSE,157,0.0,-999.0,99,-99.99,,,0.00,Acu-Link.com,2013-08-05 10:32:00,
2013-08-05 06:48:00,56.5,56.2,30.03,SSE,157,0.0,-999.0,99,-99.99,,,0.00,Acu-Link.com,2013-08-05 10:48:00,
2013-08-05 07:06:00,56.1,55.8,30.04,SSW,202,0.0,-999.0,99,-99.99,,,0.00,Acu-Link.com,2013-08-05 11:06:00,
2013-08-05 07:28:00,55.9,55.6,30.04,SSW,202,0.0,-999.0,99,-99.99,,,0.00,Acu-Link.com,2013-08-05 11:28:00,
2013-08-05 07:43:00,56.5,56.2,30.03,NNW,337,0.0,-999.0,99,-99.99,,,0.00,Acu-Link.com,2013-08-05 11:43:00,
2013-08-05 07:59:00,56.7,56.4,30.04,SSW,202,0.0,-999.0,99,-99.99,,,0.00,Acu-Link.com,2013-08-05 11:59:00,
2013-08-05 08:14:00,58.1,57.8,30.05,SW,225,0.0,-999.0,99,-99.99,,,0.00,Acu-Link.com,2013-08-05 12:14:00,
2013-08-05 08:30:00,59.0,58.7,30.04,SE,135,0.0,-999.0,99,-99.99,,,0.00,Acu-Link.com,2013-08-05 12:30:00,
2013-08-05 08:46:00,60.4,59.5,30.04,South,180,0.0,-999.0,97,-99.99,,,0.00,Acu-Link.com,2013-08-05 12:46:00,
2013-08-05 09:02:00,62.1,60.0,30.05,NW,315,0.0,-999.0,93,-99.99,,,0.00,Acu-Link.com,2013-08-05 13:02:00,
2013-08-05 09:17:00,63.9,60.3,30.04,SW,225,0.0,-999.0,88,-99.99,,,0.00,Acu-Link.com,2013-08-05 13:17:00,
2013-08-05 09:32:00,67.6,62.2,30.03,ENE,67,0.0,-999.0,83,-99.99,,,0.00,Acu-Link.com,2013-08-05 13:32:00,
2013-08-05 10:14:00,71.1,62.8,30.03,North,0,1.1,-999.0,75,-99.99,,,0.00,Acu-Link.com,2013-08-05 14:14:00,
2013-08-05 10:29:00,73.2,62.4,30.03,SSE,157,2.7,-999.0,69,-99.99,,,0.00,Acu-Link.com,2013-08-05 14:29:00,
2013-08-05 10:48:00,73.2,62.4,30.02,WNW,292,2.7,-999.0,69,-99.99,,,0.00,Acu-Link.com,2013-08-05 14:48:00,
2013-08-05 11:04:00,74.5,63.2,30.02,South,180,1.1,-999.0,68,-99.99,,,0.00,Acu-Link.com,2013-08-05 15:04:00,
2013-08-05 11:22:00,74.7,63.0,30.02,SSW,202,1.7,-999.0,67,-99.99,,,0.00,Acu-Link.com,2013-08-05 15:22:00,
2013-08-05 11:48:00,77.4,61.4,30.02,SSW,202,1.7,-999.0,58,-99.99,,,0.00,Acu-Link.com,2013-08-05 15:48:00,
2013-08-05 12:07:00,77.0,60.6,30.01,West,270,2.2,-999.0,57,-99.99,,,0.00,Acu-Link.com,2013-08-05 16:07:00,
2013-08-05 12:22:00,77.9,60.4,30.01,West,270,1.7,-999.0,55,-99.99,,,0.00,Acu-Link.com,2013-08-05 16:22:00,
2013-08-05 12:47:00,78.4,60.4,30.01,NNE,22,1.7,-999.0,54,-99.99,,,0.00,Acu-Link.com,2013-08-05 16:47:00,
2013-08-05 13:10:00,78.4,60.4,29.99,SSW,202,1.7,-999.0,54,-99.99,,,0.00,Acu-Link.com,2013-08-05 17:10:00,
2013-08-05 13:25:00,80.8,62.0,29.99,West,270,3.2,-999.0,53,-99.99,,,0.00,Acu-Link.com,2013-08-05 17:25:00,
2013-08-05 13:40:00,82.8,62.2,29.98,West,270,2.2,-999.0,50,-99.99,,,0.00,Acu-Link.com,2013-08-05 17:40:00,
2013-08-05 13:56:00,81.5,61.6,29.97,West,270,1.7,-999.0,51,-99.99,,,0.00,Acu-Link.com,2013-08-05 17:56:00,
2013-08-05 14:26:00,81.5,62.7,29.96,West,270,2.7,-999.0,53,-99.99,,,0.00,Acu-Link.com,2013-08-05 18:26:00,
2013-08-05 15:13:00,82.9,61.8,29.95,West,270,2.7,-999.0,49,-99.99,,,0.00,Acu-Link.com,2013-08-05 19:13:00,
2013-08-05 15:28:00,83.7,63.1,29.95,West,270,2.2,-999.0,50,-99.99,,,0.00,Acu-Link.com,2013-08-05 19:28:00,
2013-08-05 15:44:00,83.7,61.3,29.94,West,270,2.2,-999.0,47,-99.99,,,0.00,Acu-Link.com,2013-08-05 19:44:00,
2013-08-05 16:14:00,81.5,59.3,29.94,West,270,2.2,-999.0,47,-99.99,,,0.00,Acu-Link.com,2013-08-05 20:14:00,
2013-08-05 16:29:00,80.6,60.2,29.93,West,270,2.2,-999.0,50,-99.99,,,0.00,Acu-Link.com,2013-08-05 20:29:00,
2013-08-05 16:45:00,78.6,61.6,29.94,West,270,1.1,-999.0,56,-99.99,,,0.00,Acu-Link.com,2013-08-05 20:45:00,
2013-08-05 17:00:00,78.8,60.2,29.93,ESE,112,2.2,-999.0,53,-99.99,,,0.00,Acu-Link.com,2013-08-05 21:00:00,
2013-08-05 17:15:00,77.7,60.2,29.92,West,270,2.2,-999.0,55,-99.99,,,0.00,Acu-Link.com,2013-08-05 21:15:00,
2013-08-05 17:32:00,77.9,60.4,29.92,West,270,2.7,-999.0,55,-99.99,,,0.00,Acu-Link.com,2013-08-05 21:32:00,
2013-08-05 17:47:00,78.1,60.1,29.92,NNW,337,2.2,-999.0,54,-99.99,,,0.00,Acu-Link.com,2013-08-05 21:47:00,
2013-08-05 18:18:00,76.6,62.6,29.91,WSW,247,1.7,-999.0,62,-99.99,,,0.00,Acu-Link.com,2013-08-05 22:18:00,
2013-08-05 18:54:00,76.6,61.7,29.90,WSW,247,0.0,-999.0,60,-99.99,,,0.00,Acu-Link.com,2013-08-05 22:54:00,
2013-08-05 19:09:00,79.7,63.1,29.90,WNW,292,0.0,-999.0,57,-99.99,,,0.00,Acu-Link.com,2013-08-05 23:09:00,
2013-08-05 19:28:00,78.6,62.6,29.90,SW,225,1.1,-999.0,58,-99.99,,,0.00,Acu-Link.com,2013-08-05 23:28:00,
2013-08-05 19:47:00,77.9,62.9,29.90,SW,225,0.0,-999.0,60,-99.99,,,0.00,Acu-Link.com,2013-08-05 23:47:00,
2013-08-05 20:15:00,77.2,61.7,29.89,North,0,0.0,-999.0,59,-99.99,,,0.00,Acu-Link.com,2013-08-06 00:15:00,
2013-08-05 20:31:00,76.8,60.9,29.89,SW,225,0.0,-999.0,58,-99.99,,,0.00,Acu-Link.com,2013-08-06 00:31:00,
2013-08-05 21:02:00,75.4,60.5,29.89,NNW,337,0.0,-999.0,60,-99.99,,,0.00,Acu-Link.com,2013-08-06 01:02:00,
2013-08-05 21:23:00,74.3,62.2,29.88,West,270,0.0,-999.0,66,-99.99,,,0.00,Acu-Link.com,2013-08-06 01:23:00,
2013-08-05 21:54:00,71.8,62.7,29.90,NNW,337,0.0,-999.0,73,-99.99,,,0.00,Acu-Link.com,2013-08-06 01:54:00,
2013-08-05 22:09:00,71.4,62.7,29.89,WSW,247,0.0,-999.0,74,-99.99,,,0.00,Acu-Link.com,2013-08-06 02:09:00,
2013-08-05 22:40:00,70.9,62.2,29.88,SSW,202,0.0,-999.0,74,-99.99,,,0.00,Acu-Link.com,2013-08-06 02:40:00,
2013-08-05 22:55:00,70.5,61.8,29.88,NE,45,0.0,-999.0,74,-99.99,,,0.00,Acu-Link.com,2013-08-06 02:55:00,
2013-08-05 23:11:00,69.6,61.7,29.89,ESE,112,0.0,-999.0,76,-99.99,,,0.00,Acu-Link.com,2013-08-06 03:11:00,
2013-08-05 23:26:00,69.6,62.4,29.89,NNW,337,0.0,-999.0,78,-99.99,,,0.00,Acu-Link.com,2013-08-06 03:26:00,
2013-08-05 23:41:00,69.6,62.8,29.89,West,270,0.0,-999.0,79,-99.99,,,0.00,Acu-Link.com,2013-08-06 03:41:00,